Location: Unspecified
(0.0000°N, 0.0000°E)
Time: 21:29:30
(UTC+00:00)

deb Kosmos-252 - Visible Passes

Search period start: 05 June 2023 00:00
Search period end: 15 June 2023 00:00
Orbit: 517 x 986 km, 62.2° (Epoch: 05 June)

Date Brightness Start Highest point End Pass type
(mag) Time Alt. Az. Time Alt. Az. Time Alt. Az.
05 Jun ? 19:10:38 10° NW 19:16:15 51° WSW 19:20:33 14° S visible
06 Jun ? 18:27:33 10° NNW 18:33:25 81° ENE 18:38:34 10° SSE visible
07 Jun ? 05:17:16 10° SE 05:18:50 11° ESE 05:20:26 10° E visible
07 Jun ? 19:30:22 10° W 19:33:12 14° WSW 19:35:54 10° SW visible
08 Jun ? 18:45:37 10° NW 18:50:27 28° WSW 18:54:49 10° S visible
09 Jun ? 05:31:23 10° S 05:35:45 48° ESE 05:40:41 10° NE visible
10 Jun ? 04:49:27 10° SSE 04:53:00 23° ESE 04:56:53 10° ENE visible
11 Jun ? 04:09:37 10° ESE 04:10:15 10° ESE 04:10:53 10° ESE visible
11 Jun ? 18:21:22 10° WNW 18:24:36 16° WSW 18:27:39 10° SSW visible
12 Jun ? 05:05:27 10° SSW 05:09:56 86° WNW 05:15:08 10° NNE visible
13 Jun ? 04:24:35 22° S 04:27:07 43° ESE 04:31:57 10° NE visible
14 Jun ? 03:43:42 20° SE 03:44:21 20° ESE 03:48:01 10° ENE visible
14 Jun ? 05:23:38 10° WSW 05:27:10 22° WNW 05:31:06 10° NNW visible
